Location: ??
(35.5052°N, 139.7262°E)
Time: 02:17:55
(UTC+00:00)

OAO 1 - Pass Details

Date: 30 October 2021
Orbit: 773 x 784 km, 35.0° (Epoch: 03 December)

Event Time Altitude Azimuth Distance (km) Brightness Sun altitude
Rises 08:00:07 0° 270° (W) 3,242 9.7 -3.1°
Reaches altitude 10° 08:02:35 10° 270° (W) 2,316 8.7 -3.6°
Maximum altitude 08:08:05 87° 182° (S) 781 4.6 -4.7°
Drops below altitude 10° 08:13:35 10° 94° (E) 2,323 6.4 -5.8°
Enters shadow 08:14:35 - 94° (E) 2,692 6.7 -6.0°
